Location: Zagreb
(45.8150°N, 15.9819°E)
Time: 18:03:08
(UTC+02:00)

BlueWalker 3 - Visible Passes

Search period start: 30 September 2023 00:00
Search period end: 10 October 2023 00:00
Orbit: 491 x 508 km, 53.2° (Epoch: 29 September)

Date Brightness Start Highest point End Pass type
(mag) Time Alt. Az. Time Alt. Az. Time Alt. Az.
30 Sep 4.2 03:59:47 24° NE 03:59:47 24° NE 04:01:55 10° ENE visible
30 Sep 2.1 05:34:25 16° NW 05:37:26 73° NNE 05:41:17 10° ESE visible
01 Oct 4.9 03:39:24 15° ENE 03:39:24 15° ENE 03:40:20 10° ENE visible
01 Oct 2.0 05:14:03 30° NW 05:15:51 73° NNE 05:19:42 10° ESE visible
02 Oct 2.0 04:53:48 64° NNW 04:54:14 73° NNE 04:58:05 10° ESE visible
03 Oct 2.9 04:33:42 45° ESE 04:33:42 45° ESE 04:36:29 10° ESE visible
03 Oct 3.4 06:08:22 13° W 06:10:44 21° SW 06:13:39 10° S visible
04 Oct 4.3 04:13:45 18° ESE 04:13:45 18° ESE 04:14:51 10° ESE visible
04 Oct 3.3 05:48:25 20° WSW 05:49:06 20° SW 05:52:00 10° S visible
05 Oct 3.7 05:28:38 18° SSW 05:28:38 18° SSW 05:30:20 10° S visible
08 Oct 3.7 19:45:08 10° S 19:46:49 16° SSE 19:46:49 16° SSE visible
09 Oct 3.5 19:23:25 10° S 19:26:01 18° SE 19:26:43 17° ESE visible
09 Oct 4.3 21:00:14 10° WSW 21:01:22 19° WSW 21:01:22 19° WSW visible
